ピーターズ-ハートレー彗星

80P/Peters-Hartley (1998)

English version
Home page
Total 6,336 html files since Dec. 4, 1995
Updated on August 2, 1998

---------------------------------------------------------------------

・ プロフィール

・ 軌道要素

   The following improved orbital elements by Kenji Muraoka, 
  are from 34 observations 1982 to 1998, including 9 Planets, 
  Moon and 5 minor planets perturbations and non-gravitational
  effect of style II.  The mean residual is +/- 0.88 arc seconds.

      Epoch  =  1998 Aug. 15.0  TT       JDT = 2451040.5
          T  =  1998 Aug. 11.64046       +/- 0.00224 (m.e.) TT
       Peri. =  338.40486                +/- 0.00125
       Node  =  260.00668                +/- 0.00013   (2000.0)
       Incl. =   29.85526                +/- 0.00012
          q  =    1.6239230              +/- 0.0000046 AU
          e  =    0.5980144              +/- 0.0000024
          a  =    4.0397542              +/- 0.0000065 AU
          n  =    0.12138685             +/- 0.00000029
          P  =    8.120                  +/- 0.0000197  years
         A1  =   +0.299                  +/- 0.259
         A2  =   -0.07463                +/- 0.00125

・ 星図

・ 光度変化

        m1 = 12.0 + 5 logΔ + 20.0 log r

---------------------------------------------------------------------

軌道要素は村岡健治氏の計算によるものです。
星図は StellaNavigator Ver.2.0 for Windows (アストロアーツ 編著 / アスキー出版局刊) で作成したものです。
光度グラフはComet for Windowsで作成したものです。

---------------------------------------------------------------------

Copyright(C) 1995-2008 Seiichi Yoshida (comet@aerith.net). All rights reserved.